Regional Weather Roundup
Issued by NWS

Home | Current Version | Previous Version | Graphics & Text | Print | Product List | Glossary On
Versions: 1 2 3 4 5 6 7 8 9 10 11 12 13 14 15 16 17 18 19 20 21 22 23 24 25 26 27 28 29 30 31 32 33 34 35 36 37 38 39 40 41 42 43 44 45 46 47 48 49 50
764
ASUS43 KDMX 230401
RWRIA

WEATHER ROUNDUP FOR IOWA
NATIONAL WEATHER SERVICE DES MOINES IA
1100 PM CDT SAT APR 22 2017

NOTE: "FAIR" INDICATES FEW OR NO CLOUDS BELOW 12,000 FEET WITH NO
SIGNIFICANT WEATHER AND/OR OBSTRUCTIONS TO VISIBILITY.

* - THESE STATIONS ARE NOT NWS STATIONS...THUS NOT UNDER NWS
QUALITY CONTROL.  THEY ALSO DO NOT REPORT WEATHER SUCH
AS PRECIPITATION OR FOG.

IAZ001>003-012>014-020>022-031>034-043>046-230500-
   NORTHWEST IOWA

CITY           SKY/WX    TMP DP  RH WIND       PRES   REMARKS
CARROLL *      CLEAR     45  41  87 CALM      30.18F
CHEROKEE *     CLEAR     44  40  83 CALM      30.17S
DENISON *      CLEAR     48  36  61 CALM      30.20F
LE MARS *      CLEAR     45  39  81 CALM      30.19R
ORANGE CITY *  CLEAR     48  37  66 W6        30.18R
SHELDON *      PTCLDY    52  36  54 SW7       30.15S
SIOUX CITY     CLEAR     47  37  68 W5        30.18S
SPENCER        CLEAR     46  36  68 SW7       30.16S
STORM LAKE *   CLEAR     57  28  33 W7        30.17F
$$

IAZ055>058-069>071-079>083-090>094-230500-
   SOUTHWEST IOWA

CITY           SKY/WX    TMP DP  RH WIND       PRES   REMARKS
ATLANTIC *       N/A     45  36  70 CALM      30.20R
AUDUBON *      CLEAR     41  36  81 CALM      30.20S
CLARINDA *       N/A     41  37  87 CALM      30.22S
COUNCIL BLFS * RAIN      55  30  38 CALM      30.21R
CRESTON *      CLEAR     52  27  37 CALM      30.20S
HARLAN  *      CLEAR     46  37  71 CALM      30.23S
LAMONI         CLEAR     48  32  53 CALM      30.19R
RED OAK *      CLEAR     43  36  75 CALM      30.20S
SHENANDOAH *   CLEAR     46  36  66 CALM      30.21R
$$

IAZ047>049-059>061-072>074-084-230500-
   CENTRAL IOWA

CITY           SKY/WX    TMP DP  RH WIND       PRES   REMARKS
AMES           CLEAR     47  38  71 CALM      30.18R
ANKENY *       CLEAR     45  36  70 CALM      30.20R
BOONE *        CLEAR     55  32  41 SE3       30.17S
CHARITON *     CLEAR     52  27  37 NE5       30.18R
DES MOINES     CLEAR     54  32  43 CALM      30.18S
GRINNELL*      CLEAR     50  29  44 CALM      30.19S
KNOXVILLE *    CLEAR     54  28  37 NE3       30.17S
MARSHALLTOWN   CLEAR     50  30  46 CALM      30.17S
NEWTON *       CLEAR     54  27  35 CALM      30.17S
PELLA *        CLEAR     52  25  34 CALM      30.19S
PERRY *          N/A     52  29  40 CALM      30.19R
$$

IAZ004>006-015-016-023>025-035-036-230500-
   NORTH CENTRAL IOWA

CITY           SKY/WX    TMP DP  RH WIND       PRES   REMARKS
ALGONA *       CLEAR     52  37  58 SW7       30.16S
CLARION *      CLEAR     50  36  57 S9        30.16F
ESTHERVILLE    CLEAR     50  37  61 SW7       30.15S
FORT DODGE *   CLEAR     45  34  65 CALM      30.17F
MASON CITY     CLEAR     48  35  60 S6        30.16F
FOREST CITY *    N/A     45  39  81 S3        30.15F
WEBSTER CITY * CLEAR     52  34  50 S8        30.15F
IOWA FALLS *     N/A     48  35  59 S6        30.19S
$$

IAZ007>011-017>019-026>030-037>042-050>054-066-230500-
   NORTHEAST IOWA

CITY           SKY/WX    TMP DP  RH WIND       PRES   REMARKS
CEDAR RAPIDS   CLEAR     48  31  51 CALM      30.17R
CHARLES CITY * CLEAR     55  30  38 S7        30.16S
CLINTON *      CLEAR     47  36  65 N10       30.17S
DECORAH *      PTCLDY    54  28  37 S5        30.14F
DUBUQUE        CLEAR     47  33  58 CALM      30.17S
MONTICELLO *   CLEAR     43  37  81 CALM      30.17S
OELWEIN *      CLEAR     50  32  50 S3        30.17S
WATERLOO       CLEAR     47  35  63 CALM      30.16F
$$

IAZ064-065-067-068-078-230500-
   EAST CENTRAL IOWA

CITY           SKY/WX    TMP DP  RH WIND       PRES   REMARKS
DAVENPORT      CLEAR     47  32  56 N6        30.17S
IOWA CITY      CLEAR     46  35  65 CALM      30.18S
MUSCATINE *    CLEAR     50  32  50 N3        30.17S
QUAD CITIES    CLEAR     46  37  71 CALM      30.16R
$$

IAZ062-063-075>077-085>089-095>099-230500-
   SOUTHEAST IOWA

CITY           SKY/WX    TMP DP  RH WIND       PRES   REMARKS
BURLINGTON     CLEAR     50  33  52 N6        30.15R
FAIRFIELD *    CLEAR     48  30  49 NE6       30.17R
FORT MADISON * CLEAR     48  34  57 CALM      30.16S
KEOKUK *       PTCLDY    54  34  47 N6        30.15S
OSKALOOSA *      N/A     50  29  44 N3        30.18S
OTTUMWA        CLEAR     48  29  47 NE3       30.17S
WASHINGTON *   CLEAR     50  30  46 NE6       30.18S
$$

ABBREVIATIONS USED IN REMARKS
   TC - TEMPERATURES IN CELSIUS
  WCI - WIND CHILL INDEX
   HX - HEAT INDEX
  VSB - VISIBILITY
$$





USA.gov is the U.S. government's official web portal to all federal, state and local government web resources and services.